When you browse on this site, cookies collect data to enhance your experience and personalize the content and advertising you see.
Visit our Privacy Policy to learn more. By continuing to use the site, you agree to this use of cookies and data.
  • In Switzerland
  • List of Countries
  • For 7 days
  • Water Temperature
  • Weather Map
  • Weather Widgets
  • user-avatar
    Login

    Hourly Weather Reading

    Today, 17 September, Tuesday

    Time Temperature Precipitation Wind Pressure Humidity
    00:00 +14°C° 0 mm 2 mps 764 mmHg 82%
    01:00 +13°C° 0 mm 2 mps 764 mmHg 84%
    02:00 +12°C° 0 mm 2 mps 764 mmHg 85%
    03:00 +10°C° 0 mm 3 mps 763 mmHg 87%
    04:00 +9°C° 0 mm 2 mps 764 mmHg 89%
    05:00 +9°C° 0 mm 2 mps 764 mmHg 91%
    06:00 +8°C° 0 mm 2 mps 764 mmHg 93%
    07:00 +10°C° 0 mm 3 mps 764 mmHg 85%
    08:00 +12°C° 0 mm 3 mps 765 mmHg 78%
    09:00 +13°C° 0 mm 3 mps 765 mmHg 71%
    10:00 +15°C° 0 mm 4 mps 765 mmHg 66%
    11:00 +17°C° 0 mm 4 mps 765 mmHg 61%
    12:00 +18°C° 0 mm 4 mps 765 mmHg 56%
    13:00 +18°C° 0 mm 4 mps 765 mmHg 54%
    14:00 +18°C° 0 mm 4 mps 765 mmHg 53%
    15:00 +19°C° 0 mm 4 mps 765 mmHg 51%
    16:00 +17°C° 0 mm 3 mps 765 mmHg 56%
    17:00 +16°C° 0 mm 3 mps 765 mmHg 61%
    18:00 +14°C° 0 mm 3 mps 765 mmHg 65%
    19:00 +13°C° 0 mm 3 mps 766 mmHg 68%
    20:00 +11°C° 0 mm 3 mps 766 mmHg 70%
    21:00 +10°C° 0 mm 3 mps 767 mmHg 73%
    22:00 +10°C° 0 mm 3 mps 767 mmHg 74%
    23:00 +9°C° 0 mm 3 mps 767 mmHg 75%

    Tomorrow, 18 September, Wednesday

    Time Temperature Precipitation Wind Pressure Humidity
    00:00 +9°C° 0 mm 2 mps 767 mmHg 76%
    01:00 +8°C° 0 mm 2 mps 768 mmHg 77%
    02:00 +8°C° 0 mm 2 mps 768 mmHg 79%
    03:00 +7°C° 0 mm 2 mps 768 mmHg 81%
    04:00 +7°C° 0 mm 2 mps 768 mmHg 82%
    05:00 +7°C° 0 mm 2 mps 768 mmHg 84%
    06:00 +7°C° 0 mm 2 mps 768 mmHg 86%
    07:00 +9°C° 0 mm 2 mps 769 mmHg 78%
    08:00 +10°C° 0 mm 2 mps 769 mmHg 70%
    09:00 +12°C° 0 mm 3 mps 769 mmHg 62%
    10:00 +14°C° 0 mm 3 mps 769 mmHg 58%
    11:00 +16°C° 0 mm 3 mps 769 mmHg 53%
    12:00 +17°C° 0 mm 3 mps 769 mmHg 48%
    13:00 +17°C° 0 mm 3 mps 769 mmHg 48%
    14:00 +18°C° 0 mm 3 mps 768 mmHg 47%
    15:00 +18°C° 0 mm 3 mps 768 mmHg 47%
    16:00 +17°C° 0 mm 2 mps 768 mmHg 53%
    17:00 +16°C° 0 mm 2 mps 768 mmHg 58%
    18:00 +14°C° 0 mm 2 mps 768 mmHg 63%
    19:00 +14°C° 0 mm 2 mps 768 mmHg 65%
    20:00 +13°C° 0 mm 1 mps 769 mmHg 67%
    21:00 +12°C° 0 mm 1 mps 769 mmHg 68%
    22:00 +12°C° 0 mm 1 mps 769 mmHg 70%
    23:00 +11°C° 0 mm 1 mps 769 mmHg 73%

    Day after tomorrow, 19 September, Thursday

    Time Temperature Precipitation Wind Pressure Humidity
    00:00 +10°C° 0 mm 0 mps 769 mmHg 75%
    01:00 +10°C° 0 mm 0 mps 769 mmHg 76%
    02:00 +9°C° 0 mm 0 mps 769 mmHg 78%
    03:00 +9°C° 0 mm 0 mps 769 mmHg 80%
    04:00 +9°C° 0 mm 0 mps 769 mmHg 80%
    05:00 +9°C° 0 mm 0 mps 769 mmHg 81%
    06:00 +9°C° 0 mm 0 mps 769 mmHg 82%
    07:00 +12°C° 0 mm 1 mps 770 mmHg 75%
    08:00 +14°C° 0 mm 1 mps 770 mmHg 69%
    09:00 +16°C° 0 mm 1 mps 770 mmHg 62%
    10:00 +18°C° 0 mm 1 mps 770 mmHg 59%
    11:00 +19°C° 0 mm 1 mps 770 mmHg 56%
    12:00 +21°C° 0 mm 1 mps 770 mmHg 53%
    13:00 +21°C° 0 mm 1 mps 769 mmHg 52%
    14:00 +20°C° 0 mm 2 mps 769 mmHg 52%
    15:00 +21°C° 0 mm 2 mps 769 mmHg 51%
    16:00 +19°C° 0 mm 2 mps 769 mmHg 57%
    17:00 +19°C° 0 mm 1 mps 769 mmHg 62%
    18:00 +18°C° 0 mm 1 mps 768 mmHg 68%
    19:00 +15°C° 0 mm 1 mps 769 mmHg 71%
    20:00 +14°C° 0 mm 2 mps 769 mmHg 74%
    21:00 +13°C° 0 mm 2 mps 769 mmHg 78%
    22:00 +13°C° 0 mm 2 mps 769 mmHg 80%
    23:00 +12°C° 0 mm 2 mps 768 mmHg 83%

    20 September, Friday

    Time Temperature Precipitation Wind Pressure Humidity
    00:00 +12°C° 0 mm 2 mps 768 mmHg 86%
    01:00 +12°C° 0 mm 2 mps 768 mmHg 87%
    02:00 +10°C° 0 mm 2 mps 768 mmHg 89%
    03:00 +10°C° 0 mm 2 mps 768 mmHg 90%
    04:00 +10°C° 0 mm 2 mps 768 mmHg 91%
    05:00 +10°C° 0 mm 2 mps 767 mmHg 92%
    06:00 +10°C° 0 mm 2 mps 767 mmHg 92%
    07:00 +12°C° 0 mm 3 mps 767 mmHg 82%
    08:00 +13°C° 0 mm 4 mps 767 mmHg 72%
    09:00 +15°C° 0 mm 5 mps 767 mmHg 61%
    10:00 +16°C° 0 mm 5 mps 766 mmHg 56%
    11:00 +19°C° 0 mm 5 mps 766 mmHg 51%
    12:00 +20°C° 0 mm 5 mps 765 mmHg 46%
    13:00 +20°C° 0 mm 6 mps 765 mmHg 45%
    14:00 +21°C° 0 mm 6 mps 764 mmHg 44%
    15:00 +21°C° 0 mm 6 mps 763 mmHg 42%
    16:00 +19°C° 0 mm 5 mps 763 mmHg 48%
    17:00 +17°C° 0 mm 5 mps 762 mmHg 53%
    18:00 +15°C° 0 mm 4 mps 762 mmHg 58%
    19:00 +14°C° 0 mm 4 mps 761 mmHg 60%
    20:00 +14°C° 0 mm 5 mps 761 mmHg 62%
    21:00 +13°C° 0 mm 5 mps 761 mmHg 64%
    22:00 +13°C° 0 mm 5 mps 761 mmHg 63%
    23:00 +13°C° 0 mm 5 mps 760 mmHg 62%

    21 September, Saturday

    Time Temperature Precipitation Wind Pressure Humidity
    00:00 +13°C° 0 mm 5 mps 760 mmHg 61%
    01:00 +12°C° 0 mm 4 mps 759 mmHg 63%
    02:00 +12°C° 0 mm 4 mps 759 mmHg 65%
    03:00 +12°C° 0 mm 4 mps 758 mmHg 67%
    04:00 +11°C° 0 mm 4 mps 758 mmHg 70%
    05:00 +11°C° 0 mm 4 mps 757 mmHg 73%
    06:00 +11°C° 0 mm 4 mps 757 mmHg 76%
    07:00 +12°C° 0 mm 5 mps 756 mmHg 72%
    08:00 +14°C° 0 mm 5 mps 756 mmHg 68%
    09:00 +16°C° 0 mm 5 mps 756 mmHg 65%
    10:00 +17°C° 0 mm 6 mps 756 mmHg 61%
    11:00 +20°C° 0 mm 6 mps 755 mmHg 58%
    12:00 +22°C° 0 mm 6 mps 755 mmHg 54%
    13:00 +22°C° 0 mm 6 mps 755 mmHg 56%
    14:00 +23°C° 0 mm 6 mps 754 mmHg 57%
    15:00 +23°C° 0 mm 6 mps 754 mmHg 59%
    16:00 +22°C° 0 mm 5 mps 754 mmHg 64%
    17:00 +21°C° 0 mm 4 mps 753 mmHg 69%
    18:00 +20°C° 0 mm 3 mps 753 mmHg 74%
    19:00 +19°C° 0.8 mm 3 mps 753 mmHg 80%
    20:00 +19°C° 0.8 mm 3 mps 753 mmHg 85%
    21:00 +18°C° 0.8 mm 3 mps 754 mmHg 91%
    22:00 +18°C° 0.2 mm 3 mps 754 mmHg 91%
    23:00 +17°C° 0.2 mm 3 mps 754 mmHg 91%

    22 September, Sunday

    Time Temperature Precipitation Wind Pressure Humidity
    00:00 +17°C° 0.2 mm 3 mps 754 mmHg 92%
    01:00 +17°C° 0 mm 3 mps 754 mmHg 93%
    02:00 +17°C° 0 mm 4 mps 754 mmHg 94%
    03:00 +15°C° 0 mm 4 mps 754 mmHg 95%
    04:00 +17°C° 0 mm 4 mps 754 mmHg 95%
    05:00 +17°C° 0 mm 4 mps 754 mmHg 95%
    06:00 +17°C° 0 mm 4 mps 754 mmHg 94%
    07:00 +17°C° 0 mm 4 mps 754 mmHg 90%
    08:00 +18°C° 0 mm 4 mps 755 mmHg 86%
    09:00 +18°C° 0 mm 4 mps 755 mmHg 82%
    10:00 +19°C° 0 mm 4 mps 755 mmHg 77%
    11:00 +20°C° 0 mm 4 mps 755 mmHg 72%
    12:00 +21°C° 0 mm 4 mps 755 mmHg 67%
    13:00 +20°C° 0.1 mm 5 mps 755 mmHg 69%
    14:00 +20°C° 0.1 mm 5 mps 755 mmHg 70%
    15:00 +19°C° 0.1 mm 5 mps 755 mmHg 72%
    16:00 +18°C° 0.2 mm 4 mps 756 mmHg 76%
    17:00 +17°C° 0.2 mm 4 mps 756 mmHg 81%
    18:00 +16°C° 0.2 mm 3 mps 756 mmHg 86%
    19:00 +16°C° 0 mm 3 mps 757 mmHg 88%
    20:00 +14°C° 0 mm 3 mps 757 mmHg 91%
    21:00 +13°C° 0 mm 3 mps 758 mmHg 94%
    22:00 +12°C° 0 mm 3 mps 758 mmHg 94%
    23:00 +12°C° 0 mm 3 mps 758 mmHg 94%
    Show more